Simultaneous Nadir Overpasses (SNOs) Predictions

Prediction of SNOs between FY3D and METOP-C Satellite Orbit:

Table of predicted SNOs for the next 14.0 days since TLE Epoch: 2/22/2020
Index Date (FY3D) Time (FY3D) Lat,Lon (FY3D) SZA (FY3D ) Date (METOP-C) Time (METOP-C) Lat,Lon (METOP-C) SZA (METOP-C ) Distance(km) Time Diff (sec)
1 03/02/2020 18:05:33 73.63,-100.40 80.72 03/02/2020 18:06:40 73.55, -97.75 80.49 83.61 67
2 03/02/2020 18:56:16 -73.57, 67.06 99.37 03/02/2020 18:57:24 -73.47, 69.38 99.61 74.16 68
3 03/02/2020 19:46:56 73.32,-125.07 80.35 03/02/2020 19:48:07 73.28,-123.71 80.22 43.86 71
4 03/02/2020 20:37:39 -73.26, 42.38 99.73 03/02/2020 20:38:50 -73.24, 43.54 99.83 37.38 71
5 03/02/2020 21:28:20 73.07,-149.88 80.04 03/02/2020 21:29:33 73.05,-149.54 79.99 11.10 73
6 03/02/2020 22:19:03 -73.01, 17.57 100.04 03/02/2020 22:20:17 -72.97, 17.61 100.10 4.75 74
7 03/02/2020 23:09:47 72.96,-175.02 79.90 03/02/2020 23:10:56 72.98,-175.04 79.90 1.81 69
8 03/03/2020 00:00:31 -72.95, -7.69 100.13 03/03/2020 00:01:39 -72.94, -7.78 100.15 3.32 68
9 03/03/2020 00:51:16 72.96, 159.62 79.86 03/03/2020 00:52:18 72.95, 159.57 79.85 1.52 62
10 03/03/2020 01:42:00 -72.95, -33.05 100.16 03/03/2020 01:43:00 -72.97, -33.07 100.15 2.49 60
11 03/03/2020 02:32:45 72.95, 134.26 79.83 03/03/2020 02:33:39 72.98, 134.29 79.85 3.33 54
12 03/03/2020 03:23:29 -72.95, -58.41 100.20 03/03/2020 03:24:22 -72.95, -58.46 100.20 1.56 53
13 03/03/2020 04:14:14 72.95, 108.90 79.80 03/03/2020 04:15:01 72.96, 108.90 79.80 1.05 47
14 03/03/2020 05:04:58 -72.94, -83.77 100.23 03/03/2020 05:05:44 -72.92, -83.85 100.25 3.06 46
15 03/03/2020 05:55:43 72.94, 83.54 79.77 03/03/2020 05:56:23 72.93, 83.51 79.75 1.32 40
16 03/03/2020 06:46:26 -72.94,-109.13 100.26 03/03/2020 06:47:04 -72.95,-109.13 100.25 1.71 38
17 03/03/2020 07:37:11 72.94, 58.17 79.73 03/03/2020 07:37:43 72.96, 58.23 79.75 3.04 32
18 03/03/2020 08:27:55 -72.93,-134.49 100.29 03/03/2020 08:28:26 -72.93,-134.52 100.30 0.96 31
19 03/03/2020 09:18:40 72.93, 32.81 79.70 03/03/2020 09:19:05 72.94, 32.84 79.70 0.94 25
20 03/03/2020 10:09:24 -72.93,-159.85 100.33 03/03/2020 10:09:48 -72.90,-159.91 100.35 3.10 24
21 03/03/2020 11:00:09 72.93, 7.45 79.67 03/03/2020 11:00:27 72.91, 7.45 79.65 1.78 18
22 03/03/2020 11:50:53 -72.92, 174.79 100.36 03/03/2020 11:51:09 -72.93, 174.81 100.35 1.24 16
23 03/03/2020 12:41:38 72.93, -17.91 79.64 03/03/2020 12:41:48 72.94, -17.83 79.65 3.07 10
24 03/03/2020 13:32:22 -72.92, 149.43 100.39 03/03/2020 13:32:31 -72.91, 149.42 100.40 1.14 9
25 03/03/2020 14:23:07 72.92, -43.27 79.61 03/03/2020 14:23:10 72.92, -43.22 79.60 1.64 3
26 03/03/2020 15:13:51 -72.91, 124.06 100.42 03/03/2020 15:13:52 -72.93, 124.14 100.41 3.35 1
27 03/03/2020 16:04:36 72.92, -68.63 79.57 03/03/2020 16:04:32 72.89, -68.61 79.55 2.57 4
28 03/03/2020 16:55:20 -72.91, 98.70 100.46 03/03/2020 16:55:14 -72.91, 98.75 100.45 1.44 6
29 03/03/2020 17:46:05 72.91, -93.99 79.54 03/03/2020 17:45:53 72.92, -93.89 79.55 3.41 12
30 03/03/2020 18:36:49 -72.90, 73.34 100.49 03/03/2020 18:36:36 -72.89, 73.36 100.50 1.90 13
31 03/03/2020 19:27:34 72.91,-119.35 79.51 03/03/2020 19:27:15 72.90,-119.28 79.50 2.56 19
32 03/03/2020 20:18:18 -72.90, 47.98 100.52 03/03/2020 20:17:57 -72.91, 48.07 100.51 3.46 21
33 03/03/2020 21:09:02 72.85,-144.61 79.42 03/03/2020 21:08:37 72.87,-144.67 79.45 3.22 25
34 03/03/2020 21:59:47 -72.89, 22.62 100.55 03/03/2020 21:59:19 -72.89, 22.69 100.55 2.14 28
35 03/03/2020 22:50:31 72.85,-169.97 79.39 03/03/2020 22:49:59 72.85,-170.06 79.40 3.04 32
36 03/03/2020 23:41:16 -72.89, -2.74 100.59 03/03/2020 23:40:41 -72.87, -2.70 100.60 2.81 35
37 03/04/2020 00:32:01 72.89, 164.56 79.41 03/04/2020 00:31:20 72.88, 164.66 79.40 3.53 41
38 03/04/2020 01:22:44 -72.83, -27.99 100.67 03/04/2020 01:22:03 -72.84, -28.09 100.65 3.39 41
39 03/04/2020 02:13:29 72.84, 139.31 79.32 03/04/2020 02:12:42 72.85, 139.27 79.35 2.21 47
40 03/04/2020 03:04:14 -72.88, -53.46 100.65 03/04/2020 03:03:24 -72.87, -53.38 100.65 3.01 50
41 03/04/2020 03:54:58 72.83, 113.95 79.29 03/04/2020 03:54:04 72.83, 113.88 79.30 2.31 54
42 03/04/2020 04:45:42 -72.82, -78.72 100.74 03/04/2020 04:44:46 -72.84, -78.77 100.70 2.84 56
43 03/04/2020 05:36:27 72.83, 88.59 79.26 03/04/2020 05:35:25 72.86, 88.60 79.30 3.17 62
44 03/04/2020 06:27:11 -72.82,-104.08 100.77 03/04/2020 06:26:08 -72.82,-104.16 100.75 2.57 63
45 03/04/2020 07:17:56 72.82, 63.23 79.23 03/04/2020 07:16:47 72.83, 63.21 79.25 1.21 69
46 03/04/2020 08:08:40 -72.81,-129.44 100.80 03/04/2020 08:07:29 -72.85,-129.44 100.75 3.72 71
47 03/04/2020 08:59:24 72.77, 37.97 79.14 03/04/2020 08:58:10 72.76, 37.71 79.16 8.58 74
48 03/04/2020 09:50:07 -72.71,-154.59 100.95 03/04/2020 09:48:53 -72.72,-155.04 100.89 14.93 74
49 03/04/2020 10:40:48 72.51, 13.13 78.83 03/04/2020 10:39:37 72.48, 11.81 78.89 44.44 71
50 03/04/2020 11:31:31 -72.45,-179.43 101.26 03/04/2020 11:30:20 -72.44, 179.06 101.16 50.55 71
51 03/04/2020 12:22:11 72.20, -11.62 78.46 03/04/2020 12:21:04 72.20, -14.08 78.62 83.65 67
52 03/04/2020 13:12:54 -72.14, 155.80 101.62 03/04/2020 13:11:47 -72.17, 153.17 101.43 89.79 67




NCC Satellite Simultaneous Nadir Overpasses (SNOs) Prediction Service
